Wind_Speed
32 31 31 31 31 31 30 30 29 29 28 28 28 28 29 29 29 29 29 29 29 29 29 29 29 29 29 29 29 29 29 29 30 30 30 30 30 30 30 30 29 29 29
35 34 33 34 34 33 33 32 32 31 31 31 30 31 31 32 32 31 31 31 31 31 32 32 31 31 31 31 31 31 31 32 32 32 32 32 32 32 32 32 31 31 31
36 36 36 36 36 36 36 35 34 34 33 33 33 33 33 33 34 34 33 34 34 33 33 34 34 34 33 33 33 34 34 34 34 33 33 34 34 35 34 34 34 33 33
38 37 37 38 38 37 37 37 36 36 36 36 36 35 35 35 35 35 35 35 36 35 35 35 36 36 36 36 35 36 36 36 37 36 37 36 36 36 36 35 35 36 35
40 39 39 39 39 39 39 38 38 38 38 38 38 37 37 37 37 37 37 38 38 38 37 37 37 37 38 38 37 37 38 38 38 39 39 39 38 38 38 37 37 38 38
41 41 41 41 40 40 40 40 40 40 40 40 39 39 39 39 39 39 39 40 40 40 40 40 39 39 39 40 39 39 39 39 40 40 41 40 40 40 40 40 40 40 40
42 42 42 42 42 41 41 41 41 41 41 41 41 41 41 40 41 41 41 41 41 42 42 42 41 42 42 42 42 42 42 43 43 43 42 42 42 41 42 43 43 42 42
43 43 43 44 43 43 42 42 42 42 42 43 43 43 43 42 41 41 41 42 43 43 44 44 43 43 43 43 43 44 44 45 45 45 44 44 44 44 44 45 45 44 45
44 44 44 45 45 44 44 44 44 43 43 44 44 44 44 44 44 44 43 44 44 45 45 46 47 46 46 46 45 45 46 47 46 46 46 46 46 46 46 47 47 45 45
45 45 45 46 46 46 45 46 46 46 45 46 46 46 46 46 47 46 46 46 46 47 47 47 48 48 48 47 47 47 47 47 47 48 48 48 48 47 47 48 48 47 48
44 45 45 46 46 46 46 47 47 47 47 47 46 47 47 48 48 48 48 49 48 48 49 49 50 50 51 50 49 49 49 50 50 50 51 51 51 50 50 50 50 49 50
44 44 45 45 46 46 47 47 48 48 47 47 47 48 49 49 49 49 50 50 50 50 51 51 51 52 52 52 52 51 51 52 52 53 54 53 53 53 53 53 53 52 52
43 43 44 45 46 47 48 48 48 48 49 48 49 49 50 51 51 51 51 52 52 53 53 53 53 54 54 54 55 55 54 54 55 54 54 54 54 55 55 55 55 55 54
42 43 44 45 46 47 48 49 50 49 49 49 50 50 51 51 52 53 53 54 54 54 55 55 55 55 56 56 56 57 57 56 56 55 55 56 56 56 55 55 55 56 56
43 43 44 45 46 47 48 49 50 50 50 50 51 51 52 52 52 53 54 56 56 56 55 56 57 56 57 57 57 57 57 58 58 57 57 57 57 56 55 56 55 56 58
45 45 45 45 46 47 49 50 50 51 50 51 52 52 52 53 53 53 54 55 56 57 56 56 57 57 58 59 59 59 58 59 59 58 58 57 57 57 57 57 57 57 58
46 46 47 47 47 48 49 49 50 50 51 51 52 52 53 54 54 54 55 55 55 57 57 56 57 57 58 59 59 59 58 59 59 59 59 58 57 57 57 58 58 58 58
46 47 47 47 48 48 48 49 50 51 51 52 53 53 54 54 55 55 55 55 55 56 57 56 56 57 57 57 57 58 58 58 58 58 58 58 58 58 58 58 59 59 59
47 47 47 47 48 48 48 49 50 51 52 52 53 54 54 55 55 55 56 55 55 55 56 56 55 56 56 56 56 56 57 58 58 58 58 58 58 58 58 58 58 59 59
47 47 48 48 48 48 48 49 50 51 52 52 53 54 54 55 55 55 55 55 55 55 56 55 55 55 55 55 56 56 56 57 56 56 57 57 57 57 57 57 57 57 57
46 46 47 48 48 49 49 50 50 51 52 53 53 54 54 54 54 54 54 55 55 55 55 55 54 54 55 55 56 55 55 55 55 56 56 56 57 57 57 57 57 57 57
45 46 47 48 49 50 50 51 51 52 52 53 53 54 54 54 54 54 54 54 54 55 55 55 54 54 54 55 55 54 54 55 54 55 55 55 56 56 56 57 57 56 57
45 46 47 48 49 50 50 51 52 52 53 53 53 53 52 52 53 53 53 53 54 53 54 54 54 54 54 54 55 54 54 54 53 54 54 54 55 55 56 56 56 56 56
46 47 47 48 48 49 50 51 52 52 52 53 52 52 51 51 51 51 50 51 52 52 52 52 52 52 53 53 54 54 54 54 54 54 55 54 54 55 54 54 55 55 55
45 45 46 47 48 49 50 51 51 51 51 51 50 50 50 50 50 50 50 49 50 50 51 51 51 51 51 52 53 53 54 54 54 54 55 55 54 54 53 52 53 53 53
44 44 45 46 47 48 49 49 50 49 49 49 49 49 48 48 48 48 49 49 49 49 49 49 50 50 50 51 52 52 52 53 54 54 55 55 54 54 53 52 52 51 51
Wind_Direction
253 252 252 252 253 253 253 254 255 256 257 258 258 257 256 256 257 258 258 258 260 261 261 261 261 261 261 262 262 262 262 262 263 263 263 262 261 262 262 261 260 260 260
255 255 254 253 253 255 255 255 255 255 256 258 259 260 259 258 258 258 259 259 261 262 262 262 262 262 262 262 263 262 262 263 264 263 262 261 261 262 263 261 260 259 260
257 256 255 254 254 255 255 256 256 256 257 258 259 260 260 260 259 259 260 261 261 262 263 262 262 262 263 263 264 264 263 264 265 263 263 263 263 263 263 262 260 260 260
258 257 257 256 255 255 255 256 257 258 259 259 260 261 261 261 260 260 260 261 262 263 263 263 263 263 263 264 264 265 264 264 265 264 264 265 264 264 263 262 261 261 261
259 258 258 258 257 256 255 256 257 257 259 259 260 261 261 262 262 261 261 262 262 263 264 264 263 263 264 264 264 265 265 265 265 266 265 265 264 264 263 263 262 262 261
259 258 258 258 258 257 257 256 257 258 258 259 259 260 261 263 263 263 263 263 263 263 263 264 263 263 264 264 264 265 265 265 265 266 266 265 264 264 263 263 262 262 261
259 259 259 258 258 258 257 257 257 258 259 259 260 261 261 263 263 263 264 264 264 263 263 263 263 264 264 264 264 265 265 265 265 266 266 266 265 264 264 263 262 261 261
260 259 259 258 257 258 257 257 258 259 260 260 261 261 262 263 263 263 264 265 265 264 264 264 263 264 264 264 264 265 265 265 266 266 265 265 265 264 263 263 262 261 262
261 260 259 259 258 258 257 257 258 259 261 262 262 262 263 263 263 264 265 265 265 265 265 265 264 264 264 265 264 265 265 265 266 265 265 264 264 264 262 262 260 260 261
262 261 260 259 259 258 257 257 258 260 261 262 262 263 263 264 265 265 266 266 266 266 266 266 266 266 265 265 265 265 265 265 265 265 264 264 263 263 262 261 259 259 260
262 261 260 259 258 258 258 258 259 260 261 262 263 263 264 265 266 266 267 267 268 268 268 268 267 267 267 266 265 265 265 265 265 265 265 264 263 263 263 262 260 261 261
262 261 260 259 258 258 258 259 259 261 261 262 264 265 265 266 267 267 268 268 268 269 269 269 268 268 268 267 266 266 265 265 265 265 265 264 263 263 264 263 262 261 260
262 261 260 259 259 259 259 259 260 261 262 263 264 265 266 267 267 268 268 269 269 270 270 270 270 269 269 269 268 267 267 266 266 266 265 264 264 264 263 263 262 260 260
262 262 262 261 260 260 260 261 262 263 264 264 265 266 267 268 268 268 269 269 269 270 270 270 271 270 270 270 270 269 268 267 266 265 265 265 264 264 263 262 262 261 260
262 263 263 263 262 262 262 263 263 264 264 264 265 267 268 268 269 269 270 270 270 270 269 270 270 270 270 270 270 270 270 269 268 266 266 265 265 264 263 262 262 261 260
263 264 264 264 264 265 265 265 265 265 265 265 265 267 268 269 269 270 271 271 271 271 270 270 270 269 269 269 270 270 269 269 268 268 266 265 264 263 262 262 262 262 261
263 264 264 264 265 267 267 266 266 266 266 266 267 268 269 270 271 271 272 272 272 272 271 271 270 270 269 269 269 269 269 269 268 268 267 266 264 263 262 262 262 263 263
264 265 265 265 266 267 268 267 266 266 266 267 268 269 270 271 272 272 272 272 272 272 272 271 271 270 270 269 269 269 269 268 268 267 267 266 266 265 264 264 263 263 263
264 265 266 266 267 267 268 268 268 267 267 268 268 269 271 271 272 272 272 272 272 273 273 272 272 271 270 269 269 269 268 268 268 267 266 266 266 266 265 265 265 265 264
265 265 266 266 267 267 267 268 269 269 268 269 269 270 271 272 272 272 272 272 272 272 273 273 272 271 270 269 269 270 269 269 268 267 266 266 266 266 266 266 266 265 264
266 265 266 266 268 268 268 269 271 271 270 270 271 271 272 272 272 272 272 272 272 272 273 273 272 271 270 270 270 270 270 269 268 267 267 267 267 266 266 266 266 265 264
266 267 267 267 268 269 269 270 271 272 272 272 272 271 271 271 272 272 272 272 272 272 273 273 273 272 271 271 271 271 270 269 268 267 267 267 267 266 266 266 266 265 264
267 267 268 268 269 270 270 270 272 274 274 273 273 272 271 271 271 271 271 272 271 272 272 273 273 272 271 271 271 271 270 269 267 267 267 267 266 266 266 266 265 264 264
268 268 269 269 270 271 272 272 274 274 274 273 272 272 272 272 271 271 271 271 271 271 272 273 273 273 273 272 271 271 270 269 268 268 267 267 266 265 265 265 264 264 263
270 270 271 272 272 273 274 274 274 274 273 272 272 272 272 272 272 272 272 272 272 271 272 272 273 273 273 272 272 271 270 270 269 269 269 268 266 265 264 264 264 263 262
271 272 272 273 273 274 274 274 274 273 272 272 272 272 273 273 273 273 273 273 272 272 272 273 273 273 273 273 273 272 272 271 270 270 269 268 266 265 264 263 263 263 262
Height
5770 5771 5772 5773 5774 5775 5776 5777 5778 5779 5780 5781 5782 5783 5783 5784 5785 5786 5787 5787 5788 5789 5790 5790 5791 5791 5792 5792 5793 5794 5794 5795 5795 5796 5797 5798 5798 5799 5800 5800 5801 5802 5802
5762 5763 5764 5765 5766 5767 5768 5770 5771 5772 5773 5774 5775 5775 5776 5777 5777 5778 5779 5780 5781 5782 5783 5783 5784 5784 5785 5786 5786 5787 5787 5788 5788 5789 5790 5790 5791 5792 5793 5793 5794 5795 5796
5754 5755 5756 5757 5758 5759 5760 5761 5763 5764 5765 5766 5767 5768 5768 5769 5770 5771 5771 5772 5773 5774 5775 5775 5776 5777 5777 5778 5779 5779 5780 5780 5781 5781 5782 5783 5784 5784 5785 5786 5787 5788 5789
5744 5745 5746 5748 5749 5750 5751 5753 5754 5756 5757 5758 5758 5759 5760 5761 5762 5762 5763 5764 5764 5765 5766 5767 5767 5768 5769 5769 5770 5771 5771 5772 5773 5773 5774 5774 5775 5776 5777 5778 5779 5779 5780
5735 5736 5737 5738 5739 5740 5742 5743 5745 5746 5747 5748 5749 5750 5751 5752 5753 5754 5754 5755 5755 5756 5757 5758 5758 5759 5760 5760 5761 5762 5762 5763 5763 5764 5765 5765 5766 5767 5768 5769 5770 5771 5772
5725 5725 5726 5727 5729 5730 5732 5733 5735 5736 5737 5738 5739 5740 5741 5742 5743 5744 5744 5745 5746 5746 5747 5748 5748 5749 5750 5751 5751 5752 5752 5753 5754 5754 5755 5755 5756 5757 5758 5759 5760 5761 5762
5714 5715 5716 5717 5718 5720 5721 5723 5724 5726 5727 5728 5729 5730 5731 5732 5732 5733 5734 5734 5735 5736 5736 5737 5738 5739 5740 5740 5741 5742 5742 5743 5743 5744 5744 5745 5745 5746 5747 5748 5748 5749 5751
5703 5704 5705 5706 5707 5709 5710 5712 5713 5715 5716 5717 5718 5719 5720 5722 5722 5723 5723 5723 5724 5724 5725 5726 5727 5728 5728 5729 5730 5730 5731 5731 5731 5732 5733 5733 5733 5734 5735 5736 5736 5738 5739
5692 5693 5694 5695 5696 5698 5699 5701 5702 5703 5705 5706 5706 5707 5708 5710 5711 5712 5712 5712 5712 5713 5713 5714 5714 5715 5716 5717 5718 5718 5718 5719 5720 5720 5720 5720 5720 5721 5722 5723 5724 5725 5727
5679 5680 5682 5683 5684 5685 5687 5688 5690 5691 5692 5693 5694 5695 5696 5697 5698 5700 5700 5700 5700 5700 5701 5701 5701 5702 5703 5703 5704 5705 5706 5706 5706 5707 5707 5707 5707 5708 5709 5710 5711 5712 5714
5667 5668 5669 5670 5672 5673 5674 5676 5677 5678 5680 5681 5682 5683 5683 5684 5685 5686 5688 5688 5687 5687 5687 5688 5688 5688 5689 5690 5691 5691 5692 5692 5692 5693 5693 5693 5694 5694 5695 5696 5698 5698 5700
5655 5655 5656 5657 5659 5660 5662 5663 5664 5666 5667 5668 5669 5670 5670 5671 5672 5673 5674 5675 5675 5674 5674 5674 5674 5674 5674 5675 5676 5677 5677 5678 5678 5678 5678 5679 5679 5680 5680 5682 5683 5684 5685
5643 5643 5644 5645 5646 5647 5649 5650 5651 5653 5654 5655 5655 5656 5657 5658 5658 5659 5660 5660 5661 5661 5660 5660 5659 5659 5659 5660 5661 5661 5662 5662 5662 5662 5663 5663 5663 5664 5665 5666 5667 5669 5670
5631 5632 5632 5633 5634 5634 5635 5637 5638 5639 5640 5641 5642 5642 5643 5644 5644 5645 5645 5645 5646 5647 5646 5646 5645 5644 5643 5644 5644 5645 5646 5646 5646 5647 5647 5647 5647 5648 5649 5650 5651 5653 5655
5620 5620 5620 5621 5621 5622 5622 5623 5624 5625 5626 5627 5628 5629 5629 5629 5630 5630 5630 5630 5631 5631 5632 5631 5630 5629 5628 5628 5628 5628 5629 5629 5630 5630 5631 5631 5631 5631 5633 5634 5635 5636 5638
5608 5608 5608 5609 5609 5609 5609 5610 5611 5611 5612 5613 5614 5614 5615 5615 5615 5615 5615 5614 5614 5614 5615 5616 5614 5613 5612 5612 5612 5612 5613 5613 5613 5613 5613 5614 5614 5615 5616 5617 5618 5619 5621
5596 5596 5596 5596 5597 5596 5596 5597 5597 5598 5598 5599 5599 5600 5600 5600 5600 5600 5600 5599 5598 5598 5599 5599 5598 5597 5596 5595 5595 5595 5595 5596 5596 5596 5596 5596 5597 5598 5599 5600 5601 5602 5603
5583 5583 5583 5584 5584 5584 5583 5583 5584 5584 5585 5585 5585 5585 5585 5585 5585 5584 5584 5583 5583 5582 5582 5583 5582 5580 5579 5578 5578 5578 5578 5578 5579 5579 5579 5579 5580 5581 5582 5583 5583 5584 5586
5570 5570 5571 5571 5571 5570 5570 5570 5570 5570 5570 5571 5571 5571 5570 5570 5569 5569 5568 5568 5567 5566 5565 5565 5565 5564 5563 5562 5562 5562 5562 5562 5562 5562 5562 5562 5563 5563 5564 5565 5565 5566 5567
5557 5557 5557 5557 5557 5557 5557 5557 5556 5556 5556 5556 5556 5556 5555 5554 5554 5553 5552 5552 5551 5550 5549 5549 5548 5548 5547 5546 5546 5546 5546 5545 5545 5545 5545 5545 5545 5546 5547 5547 5548 5549 5549
5544 5544 5544 5544 5544 5543 5543 5543 5542 5542 5541 5541 5541 5540 5540 5539 5538 5537 5536 5536 5535 5534 5533 5533 5532 5531 5531 5530 5530 5529 5529 5529 5529 5528 5528 5529 5529 5529 5529 5530 5530 5531 5532
5531 5531 5531 5530 5530 5529 5529 5528 5528 5527 5526 5526 5525 5525 5524 5524 5523 5522 5521 5520 5519 5518 5518 5517 5516 5515 5515 5514 5513 5513 5513 5513 5514 5514 5512 5512 5512 5512 5512 5513 5514 5514 5514
5518 5518 5517 5517 5516 5515 5514 5514 5513 5512 5511 5511 5510 5509 5509 5508 5507 5506 5505 5504 5503 5502 5502 5501 5500 5499 5499 5498 5498 5497 5496 5496 5496 5496 5495 5496 5495 5495 5496 5497 5497 5497 5498
5506 5505 5504 5503 5502 5501 5500 5499 5498 5497 5496 5495 5494 5494 5493 5493 5492 5491 5490 5489 5488 5487 5486 5486 5485 5484 5482 5481 5481 5481 5480 5480 5480 5480 5478 5479 5479 5480 5480 5480 5481 5481 5481
5493 5492 5491 5489 5488 5487 5486 5485 5483 5482 5481 5480 5480 5479 5479 5478 5477 5476 5476 5475 5474 5473 5471 5470 5469 5468 5467 5466 5464 5464 5464 5464 5464 5464 5462 5462 5463 5463 5465 5465 5465 5465 5465
5480 5478 5477 5476 5475 5473 5472 5471 5469 5468 5468 5467 5467 5466 5465 5464 5463 5461 5461 5460 5459 5458 5457 5455 5454 5453 5452 5450 5449 5448 5447 5447 5447 5448 5447 5445 5446 5446 5448 5450 5449 5449 5450